Location: Casilda
(33.0440°S, 61.1680°W)
Time: 15:06:18
(UTC-03:00)

ISS - Pass Details

Date: 15 June 2021
Orbit: 417 x 422 km, 51.6° (Epoch: 16 June)

Event Time Altitude Azimuth Distance (km) Brightness Sun altitude
Rises 20:02:00 0° 336° (NNW) 2,359 0.6 -23.9°
Reaches altitude 10° 20:04:13 10° 346° (NNW) 1,504 -0.6 -24.3°
Enters shadow 20:04:53 14° 352° (N) 1,272 -1.1 -24.4°
